Regional Weather Roundup
Issued by NWS

Home | Current Version | Previous Version | Text Only | Print | Product List | Glossary Off
Versions: 1 2 3 4 5 6 7 8 9 10 11 12 13 14 15 16 17 18 19 20 21 22 23 24 25 26 27 28 29 30 31 32 33 34 35 36 37 38 39 40 41 42 43 44 45 46 47 48 49 50

000
ASUS43 KIND 221959
RWRIN

WEATHER ROUNDUP FOR INDIANA
NATIONAL WEATHER SERVICE INDIANAPOLIS IN
400 PM EDT FRI AUG 22 2014

NOTE: "FAIR" INDICATES FEW OR NO CLOUDS BELOW 12,000 FEET WITH NO
SIGNIFICANT WEATHER AND/OR OBSTRUCTIONS TO VISIBILITY.

* - STATION DOES NOT REPORT WEATHER SUCH AS PRECIPITATION OR FOG.

+ - STATION NOT QUALITY CONTROLLED BY THE NATIONAL WEATHER SERVICE.
    USE DATA WITH CAUTION...ESPECIALLY DEWPOINT AND RELATIVE
    HUMIDITY OBSERVATIONS.

INZ001>003-010>013-019-020-222100-
NORTHWEST INDIANA

CITY           SKY/WX    TMP DP  RH WIND       PRES   REMARKS
GARY /AIRPORT/ PTSUNNY   86  72  62 W9        29.93F
KNOX *+        CLOUDY    81  72  74 W5        29.95S
MONTICELLO +   CLOUDY    80  74  81 W3        29.96S
VALPARAISO     CLOUDY    84  73  69 VRB3      29.95F

$$

LMZ046-743>745-222100-
SOUTHERN LAKE MICHIGAN

STATION/POSITION TIME  TEMP WIND        PRES
                       AIR  DIR/SP/G
                 (UTC) (F)  (DEG/KT/KT) (MB)
MICHIGAN CITY    1900   78   50/  2/  2   N/A

$$

INZ004-005-014>016-021>024-222100-
NORTH CENTRAL INDIANA

CITY           SKY/WX    TMP DP  RH WIND       PRES   REMARKS
GOSHEN         PTSUNNY   85  73  67 VRB7      29.95F
SOUTH BEND     CLOUDY    82  72  71 NW8       29.96F
WARSAW +       CLOUDY    81  72  74 N6        29.96F

$$

INZ006>009-017-018-025>027-222100-
NORTHEAST INDIANA

CITY           SKY/WX    TMP DP  RH WIND       PRES   REMARKS
ANGOLA *+      CLOUDY    82  73  74 NW7       29.97S
FORT WAYNE     CLOUDY    81  73  76 NW6       29.97F

$$

INZ028-029-035-036-043>045-051>053-222100-
WEST CENTRAL INDIANA

CITY           SKY/WX    TMP DP  RH WIND       PRES   REMARKS
GREENCASTLE +  CLOUDY    81  72  74 CALM      30.00S
LAFAYETTE      PTSUNNY   81  73  76 VRB3      29.96F
TERRE HAUTE    CLOUDY    84  74  71 SE3       29.97F

$$

INZ030>032-037>040-046>048-054>057-064-065-222100-
CENTRAL INDIANA

CITY           SKY/WX    TMP DP  RH WIND       PRES   REMARKS
ANDERSON       PTSUNNY   82  72  69 W12       29.99F
COLUMBUS       MOSUNNY   86  75  70 CALM      29.97F HX  95
INDIANAPOLIS   CLOUDY    85  68  56 NW7       29.98F
-EAGLE CREEK   PTSUNNY   85  70  60 W8        29.98F
KOKOMO *+      PTSUNNY   82  72  69 NW13      29.97F
MT COMFORT *+  CLOUDY    84  66  54 W7        29.99F
SHELBYVILLE    CLOUDY    84  74  71 W8        29.98F

$$

INZ033-034-041-042-049-050-058-059-222100-
EAST CENTRAL INDIANA

CITY           SKY/WX    TMP DP  RH WIND       PRES   REMARKS
MUNCIE         PTSUNNY   82  71  69 W9        29.98F

$$

INZ060-061-067>069-081>083-085>088-222100-
SOUTHWEST INDIANA

CITY           SKY/WX    TMP DP  RH WIND       PRES   REMARKS
EVANSVILLE     PTSUNNY   91  74  57 W10       29.98F HX 100

$$

INZ062-063-066-070>080-084-089>092-222100-
SOUTH CENTRAL AND SOUTHEAST INDIANA

CITY           SKY/WX    TMP DP  RH WIND       PRES   REMARKS
BLOOMINGTON    CLOUDY    85  74  69 W5        29.99F

$$



USA.gov is the U.S. government's official web portal to all federal, state and local government web resources and services.